Flag for France Weather past 2 weeks in Strasbourg, France

Now
79 °F

Passing clouds.


Feels Like: 81 °F
Forecast: 68 / 95 °F
Wind: 5 mph from Northwest

Location: Strasbourg Airport

Current Time: Jul 3, 2015 at 1:23:58 AM

Latest Report: Jul 3, 2015 at 1:00 AM


Visibility: N/A

Pressure: 30.15 "Hg

Humidity: 65%

Dew point: 66 °F

Location of StrasbourgLocation

Historic Weather in Strasbourg — Graph

°F

Strasbourg temperature yesterday

Maximum temperature yesterday: 99 °F (at 3:30 PM)
Minimum temperature yesterday: 64 °F (at 5:30 AM)
Average temperature yesterday: 83 °F

Past Weeks' High & Low Weather Summary

 TemperatureHumidityPressure
High99 °F (Jul 2, 3:30 PM)100% (Jun 22, 5:00 AM)30.21 "Hg (Jun 22, 5:00 AM)
Low48 °F (Jun 23, 5:30 AM)23% (Jul 1, 6:00 PM)29.77 "Hg (Jun 22, 7:00 PM)
Average67 °F65%30.09 "Hg
* Reported Midnight between Jun 17 and Jun 18 — Jul 3 12:30 AM, Strasbourg, Weather by CustomWeather, © 2015

Note: Actual official high and low records may vary slightly from our data, if they occured in-between our weather recording intervals... More about our weather records

Advertising

Strasbourg weather history for previous 24 hours

 ConditionsComfort  
Time TempWeatherWind HumidityBarometerVisibility
12:30 AM
Fri, Jul 3
81 °FClear.No wind66%30.12 "Hg10 mi
12:00 AM79 °FClear.No wind70%30.12 "Hg10 mi
11:30 PM
Thu, Jul 2
81 °FPassing clouds.3 mph66%30.12 "HgN/A
11:00 PM82 °FClear.1 mph66%30.12 "Hg10 mi
10:30 PM82 °FSunny.2 mph62%30.12 "Hg10 mi
10:00 PM82 °FPassing clouds.3 mph66%30.09 "HgN/A
9:30 PM86 °FSunny.2 mph59%30.09 "Hg10 mi
9:00 PM90 °FSunny.3 mph52%30.07 "Hg10 mi
8:30 PM91 °FSunny.3 mph49%30.07 "Hg10 mi
8:00 PM93 °FSunny.2 mph41%30.07 "Hg10 mi
7:30 PM95 °FPassing clouds.3 mph39%30.07 "HgN/A
7:00 PM97 °FPassing clouds.3 mph34%30.07 "HgN/A
6:30 PM97 °FPassing clouds.3 mph32%30.07 "HgN/A
6:00 PM97 °FSunny.3 mph32%30.07 "Hg10 mi
5:30 PM99 °FPassing clouds.5 mph31%30.07 "HgN/A
5:00 PM99 °FPassing clouds.6 mph31%30.07 "HgN/A
4:30 PM99 °FPassing clouds.3 mph27%30.07 "HgN/A
4:00 PM99 °FSunny.5 mph27%30.07 "Hg10 mi
3:30 PM99 °FSunny.3 mph29%30.07 "Hg10 mi
3:00 PM97 °FSunny.3 mph30%30.07 "Hg10 mi
2:30 PM95 °FPassing clouds.2 mph36%30.09 "HgN/A
2:00 PM95 °FSunny.3 mph34%30.09 "Hg10 mi
1:30 PM93 °FSunny.2 mph39%30.09 "Hg10 mi
1:00 PM93 °FSunny.5 mph39%30.09 "Hg10 mi
12:30 PM90 °FPassing clouds.5 mph41%30.09 "HgN/A
12:00 PM90 °FPassing clouds.6 mph43%30.09 "HgN/A
11:30 AM88 °FPassing clouds.5 mph46%30.09 "HgN/A
11:00 AM84 °FSunny.3 mph51%30.12 "Hg10 mi
10:30 AM84 °FSunny.2 mph51%30.12 "Hg10 mi
10:00 AM82 °FSunny.3 mph51%30.12 "Hg10 mi
9:30 AM81 °FSunny.3 mph58%30.12 "Hg10 mi
9:00 AM79 °FSunny.1 mph58%30.12 "Hg10 mi
8:30 AM77 °FSunny.2 mph61%30.12 "Hg10 mi
8:00 AM75 °FSunny.2 mph65%30.12 "Hg10 mi
7:30 AM73 °FSunny.2 mph69%30.09 "Hg10 mi
7:00 AM70 °FSunny.No wind78%30.09 "Hg10 mi
6:30 AM68 °FClear.3 mph78%30.09 "Hg10 mi
6:00 AM66 °FClear.1 mph83%30.09 "Hg10 mi
5:30 AM64 °FClear.No wind88%30.09 "Hg10 mi
5:00 AM66 °FClear.1 mph83%30.09 "Hg10 mi
4:30 AM66 °FClear.No wind83%30.07 "Hg10 mi
4:00 AM66 °FClear.2 mph83%30.07 "Hg10 mi
3:30 AM66 °FClear.1 mph83%30.07 "Hg10 mi
3:00 AM68 °FClear.No wind78%30.07 "Hg10 mi
2:30 AM68 °FClear.1 mph78%30.07 "Hg10 mi
2:00 AM70 °FClear.No wind73%30.07 "Hg10 mi
1:30 AM70 °FClear.No wind73%30.07 "Hg10 mi
1:00 AM72 °FClear.2 mph73%30.07 "Hg10 mi
Weather by CustomWeather, © 2015

See weather overviewHow to use our weather pages